Weather History for Iranshahr, Iran

Change the Weather History Date:

Wednesday, September 18, 2013

  Actual Average Record
Temperature  
Mean Temperature 94 °F -  
Max Temperature 105 °F 100 °F - ()
Min Temperature 82 °F 70 °F - ()
Cooling Degree Days 28    
Growing Degree Days 44 (Base 50)    
Moisture  
Dew Point 51 °F    
Average Humidity 22    
Maximum Humidity 34    
Minimum Humidity 8    
Precipitation  
Precipitation 0.00 in 0.00 in - ()
Sea Level Pressure  
Sea Level Pressure 29.70 in    
Wind  
Wind Speed 5 mph ()    
Max Wind Speed 14 mph    
Max Gust Speed -    
Visibility 5.0 miles    
Events      
T = Trace of Precipitation, MM = Missing Value Source: Averaged Metar Reports

Daily Weather History Graph

Daily Weather History Graph

Search for Another Location

Airport:

Trip Planner

Search our weather history database for the weather conditions in past years. The results will help you decide how hot, cold, wet, or windy it might be!

Date:

Astronomy

Sep. 18, 2013 Rise Set
Actual Time 6:13 AM IRDT 6:28 PM IRDT
Civil Twilight 5:50 AM IRDT 6:51 PM IRDT
Nautical Twilight 5:23 AM IRDT 7:18 PM IRDT
Astronomical Twilight 4:55 AM IRDT 7:46 PM IRDT
Moon 5:35 PM IRDT (9/18) 4:52 AM IRDT (9/18)
Length of Visible Light 13h 01m
Length of Day
12h 14m
Waxing Gibbous, 98% of the Moon is Illuminated
Sep 18
Waxing Gibbous
Sep 19
Full
Sep 27
Last Quarter
Oct 5
New
Oct 12
First Quarter

Hourly Weather History & Observations

Time (IRDT) Temp. Heat Index Dew Point Humidity Pressure Visibility Wind Dir Wind Speed Gust Speed Precip Events Conditions
12:30 AM 89.6 °F - 50.0 °F 26% 29.74 in 6.2 mi North 4.6 mph - N/A   Mostly Cloudy
1:30 AM 87.8 °F - 48.2 °F 25% 29.74 in 6.2 mi NNE 6.9 mph - N/A   Mostly Cloudy
4:30 AM 84 °F - 47 °F 18% 29.57 in 6 mi NNW 4.5 mph - -   Scattered Clouds
4:30 AM 84.2 °F - 48.2 °F 29% 29.71 in - NNW 4.6 mph - N/A   Clear
6:30 AM 82.4 °F - 48.2 °F 30% 29.74 in - NNE 9.2 mph - N/A   Clear
7:30 AM 84.2 °F - 50.0 °F 30% 29.77 in - North 4.6 mph - N/A   Clear
8:30 AM 89.6 °F - 50.0 °F 26% 29.77 in - NE 6.9 mph - N/A   Clear
9:30 AM 95.0 °F - 50.0 °F 22% 29.80 in - ENE 6.9 mph - N/A   Clear
10:30 AM 99 °F - 55 °F 14% 29.63 in 6 mi Calm Calm - -  
10:30 AM 98.6 °F 97.2 °F 55.4 °F 24% 29.77 in - Calm Calm - N/A   Clear
11:30 AM 98.6 °F 96.4 °F 53.6 °F 22% 29.77 in - WNW 4.6 mph - N/A   Clear
12:30 PM 100.4 °F 98.4 °F 53.6 °F 21% 29.74 in 5.0 mi WNW 6.9 mph - N/A   Clear
1:30 PM 102.2 °F 100.4 °F 53.6 °F 20% 29.71 in 5.0 mi West 9.2 mph - N/A   Clear
2:30 PM 104.0 °F - 51.8 °F 17% 29.68 in 5.0 mi SSW 9.2 mph - N/A   Partly Cloudy
3:30 PM 105.8 °F - 46.4 °F 14% 29.65 in 5.0 mi WSW 13.8 mph - N/A   Partly Cloudy
4:30 PM 105 °F - 47 °F 8% 29.50 in 5 mi West 6.7 mph - -   Haze
4:30 PM 105.8 °F - 46.4 °F 14% 29.65 in 5.0 mi West 6.9 mph - N/A   Partly Cloudy
5:30 PM 104.0 °F - 46.4 °F 14% 29.65 in 5.0 mi West 6.9 mph - N/A   Partly Cloudy
6:30 PM 102.2 °F - 46.4 °F 15% 29.65 in 5.0 mi East 11.5 mph - N/A   Partly Cloudy
7:30 PM 98.6 °F - 46.4 °F 17% 29.68 in 5.0 mi ESE 13.8 mph - N/A   Partly Cloudy
8:30 PM 96.8 °F 94.4 °F 53.6 °F 23% 29.71 in 5.0 mi SE 11.5 mph - N/A   Partly Cloudy
9:30 PM 95.0 °F 94.4 °F 59.0 °F 30% 29.71 in 3.7 mi SSE 13.8 mph - N/A   Partly Cloudy
10:30 PM 93 °F - 59 °F 23% 29.57 in 4 mi Calm Calm - -   Haze
10:30 PM 93.2 °F 92.6 °F 59.0 °F 32% 29.74 in 3.7 mi Calm Calm - N/A   Unknown
11:30 PM 91.4 °F 90.7 °F 59.0 °F 34% 29.74 in 3.7 mi Calm Calm - N/A   Unknown